Simultaneous Nadir Overpasses (SNOs) Predictions

Prediction of SNOs between METOP-B and TERRA Satellite Orbit:

Table of predicted SNOs for the next 14.0 days since TLE Epoch: 4/26/2025
Index Date (METOP-B) Time (METOP-B) Lat,Lon (METOP-B) SZA (METOP-B ) Date (TERRA) Time (TERRA) Lat,Lon (TERRA) SZA (TERRA ) Distance(km) Time Diff (sec)
1 04/27/2025 12:21:02 -78.45, 179.21 115.58 04/27/2025 12:21:32 -78.46, 179.26 115.57 1.23 30
2 04/27/2025 13:11:29 78.97, -10.34 65.00 04/27/2025 13:10:39 78.96, -10.44 64.98 2.19 50
3 04/30/2025 02:00:38 78.52, 154.65 63.70 04/30/2025 02:00:41 78.53, 154.78 63.71 2.95 3
4 04/30/2025 02:49:10 -81.46, 4.11 110.57 04/30/2025 02:47:57 -82.00, 3.63 110.29 60.25 73
5 05/02/2025 14:49:39 78.37, -38.49 62.77 05/02/2025 14:50:36 78.36, -38.55 62.76 1.47 57
6 05/02/2025 15:40:10 -78.77, 131.20 116.79 05/02/2025 15:39:47 -78.76, 131.14 116.80 1.53 23
7 05/05/2025 04:29:14 -78.50, -62.69 117.83 05/05/2025 04:29:44 -78.49, -62.78 117.84 2.12 30
8 05/05/2025 05:19:44 78.89, 106.98 62.60 05/05/2025 05:18:53 78.88, 106.94 62.59 0.99 51
9 05/07/2025 18:08:49 78.56, -87.25 61.53 05/07/2025 18:08:50 78.57, -87.21 61.53 1.16 1



Historial Predications of SNOs between METOP-B and TERRA
